Current weather by "City, St" or "zip code"  
 

Current Conditions: Yolo County Airport, CA

Rain Fog/Mist


57.0 F

Last Updated on Oct 21 2021, 8:55 am PDT
Humidity: 100%
Wind Speed: N 0.0 mph
Barometer 30.13 in
Dewpoint: 57.2 F
Visibility: 2.00 mi
Precip: --
Heat Index: NA
Wind Chill: NA
Current conditions at:

Yolo County Airport, CA (KDWA)

Lat: 38.57939 Lon: 121.85694

Local Radar Image active severe weather and emergency alerts image image weather storm and storm spotter reports image weather observation monitoring service image
Local
Radar
Active
Alerts
Storm Reports Obs
Monitoring

Sign-up For Email & Text Message Weather Alert Notification Services



Advertise Here

Observation History for Yolo County Airport, CA


Time Wind
(mph)
Vis
(mi)
Weather Precip (in) Temperature (F) Relative
Humidity
Wind
Chill
(F)
Heat
Index
(F)
Pressure
Air Dwpt altimeter
(in)
sea level
(mb)
Rmks
8:55 am PDT N 0.0 2.00 Rain Fog/Mist -- 57.0 57.2 100% NA NA 30.13 M
7:50 am PDT N 0.0 3.00 Fog/Mist -- 57.0 57.2 100% NA NA 30.11 M
6:55 am PDT N 0.0 5.00 Unknown Precip Fog/Mist -- 59.0 59.0 100% NA NA 30.11 M
5:50 am PDT N 0.0 10.00 Overcast -- 59.0 57.2 94% NA NA 30.10 M
4:55 am PDT N 0.0 6.00 Fog/Mist -- 57.0 57.2 100% NA NA 30.09 M
3:55 am PDT N 0.0 6.00 Fog/Mist -- 57.0 57.2 100% NA NA 30.09 M
2:55 am PDT N 0.0 1.50 Light Rain Fog/Mist -- 57.0 57.2 100% NA NA 30.10 M
1:55 am PDT N 0.0 4.00 Fog/Mist -- 57.0 57.2 100% NA NA 30.11 M
12:55 am PDT N 0.0 4.00 Fog/Mist -- 57.0 57.2 100% NA NA 30.11 M
12:35 am PDT N 0.0 7.00 Overcast -- 57.0 57.2 100% NA NA 30.11 M
11:55 pm PDT N 0.0 3.00 Fog/Mist -- 57.0 57.2 100% NA NA 30.12 M
10:50 pm PDT N 0.0 1.50 Light Rain Fog/Mist -- 57.0 57.2 100% NA NA 30.11 M
9:55 pm PDT N 0.0 10.00 Overcast -- 57.0 57.2 100% NA NA 30.11 M
8:55 pm PDT SE 3.5 6.00 Fog/Mist -- 59.0 55.4 88% NA NA 30.11 M
7:50 pm PDT N 0.0 10.00 Overcast -- 63.0 53.6 73% NA NA 30.10 M
6:55 pm PDT N 0.0 10.00 Overcast -- 63.0 53.6 73% NA NA 30.08 M
5:50 pm PDT N 0.0 10.00 Overcast -- 64.0 53.6 68% NA NA 30.08 M
4:55 pm PDT N 0.0 10.00 Overcast -- 64.0 53.6 68% NA NA 30.09 M
3:55 pm PDT N 0.0 10.00 Overcast -- 63.0 53.6 73% NA NA 30.10 M
2:55 pm PDT SE 5.8 5.00 Overcast with Haze -- 63.0 55.4 77% 63 NA 30.10 M
1:55 pm PDT SE 6.9 10.00 Overcast -- 63.0 53.6 73% 63 NA 30.10 M
12:55 pm PDT SW 8.1 10.00 Overcast -- 61.0 53.6 77% 60 NA 30.11 M
11:55 am PDT SW 5.8 10.00 Overcast -- 61.0 53.6 77% 61 NA 30.11 M
10:55 am PDT S 5.8 10.00 Overcast -- 59.0 53.6 82% 58 NA 30.12 M

Regional Weather Observation


University Airport, CA (KEDU)

Overcast
57.0 F

Vacaville Nut Tree Airport, CA (KVCB)

Light Rain Fog/Mist
58.0 F

Sacramento International Airport, CA (KSMF)

Light Rain Fog/Mist
59.0 F

Fairfield / Travis Air Force Base, CA (KSUU)

Light Rain Fog/Mist
58.0 F

Lincoln Regional Karl Harder Field, CA (KLHM)

Overcast
59.0 F

Sacramento, McClellan Airfield Airport, CA (KMCC)

Light Rain
61.0 F

Advertise Here


Advertise Here